Location: Banios
(43.0451°N, 0.2335°E)
Time: 14:05:57
(UTC+00:00)

A-11 Canister half - Pass Details

Date: 08 May 2021
Orbit: 1513 x 1686 km, 47.2° (Epoch: 14 June)

Event Time Altitude Azimuth Distance (km) Brightness Sun altitude
Rises 21:30:04 0° 294° (WNW) 4,679 12.6 -21.0°
Reaches altitude 10° 21:33:05 10° 293° (WNW) 3,708 11.8 -21.3°
Maximum altitude 21:42:23 72° 211° (SSW) 1,636 9.0 -22.3°
Enters shadow 21:47:04 35° 137° (SE) 2,361 9.4 -22.8°
Drops below altitude 10° 21:52:01 10° 130° (SE) 3,825 - -23.3°
Sets 21:55:11 0° 128° (SE) 4,832 - -23.6°
